Weather History for KLBF - May, 2014

Change the Weather History Date:

Friday, May 2, 2014

  Actual Average Record
Temperature  
Mean Temperature 51 °F 53 °F  
Max Temperature 76 °F 68 °F 88 °F (1955)
Min Temperature 25 °F 39 °F 18 °F (2005)
Degree Days  
Heating Degree Days 14 12  
Month to date heating degree days 37 24  
Since 1 July heating degree days 6604 6414  
Cooling Degree Days 0 0  
Month to date cooling degree days 0 0  
Year to date cooling degree days 2 3  
Moisture  
Dew Point 32 °F    
Average Humidity 59    
Maximum Humidity 92    
Minimum Humidity 25    
Precipitation  
Precipitation T in 0.09 in 1.61 in (1988)
Month to date precipitation T 0.18  
Year to date precipitation 2.48 4.34  
Snow  
Snow 0.00 in 0.00 in 3.50 in (1907)
Month to date snowfall 0.0 0.0  
Since 1 July snowfall 29.8 28.5  
Snow Depth 0.00 in    
Sea Level Pressure  
Sea Level Pressure 29.93 in    
Wind  
Wind Speed 8 mph (NW)    
Max Wind Speed 21 mph    
Max Gust Speed 24 mph    
Visibility 10 miles    
Events Rain    
T = Trace of Precipitation, MM = Missing Value Source: NWS Daily Summary

Daily Weather History Graph

Daily Weather History Graph

Search for Another Location

Airport or City:

Trip Planner

Search our weather history database for the weather conditions in past years. The results will help you decide how hot, cold, wet, or windy it might be!

Date:

Astronomy

May. 02, 2014 Rise Set
Actual Time 6:39 AM CDT 8:40 PM CDT
Civil Twilight 6:09 AM CDT 9:10 PM CDT
Nautical Twilight 5:32 AM CDT 9:47 PM CDT
Astronomical Twilight 4:52 AM CDT 10:27 PM CDT
Moon 9:17 AM CDT (5/2) No Moon Set
Length of Visible Light 15h 01m
Length of Day
14h 01m
Waxing Crescent, 12% of the Moon is Illuminated
May 2
Waxing Crescent
May 6
First Quarter
May 14
Full
May 21
Last Quarter
May 28
New

Hourly Weather History & Observations

Time (CDT) Temp. Windchill Dew Point Humidity Pressure Visibility Wind Dir Wind Speed Gust Speed Precip Events Conditions
12:53 AM 28.9 °F - 24.1 °F 82% 30.07 in 10.0 mi Calm Calm - N/A   Clear
1:53 AM 30.0 °F 25.2 °F 25.0 °F 82% 30.07 in 10.0 mi West 4.6 mph - N/A   Clear
2:53 AM 27.0 °F 21.6 °F 24.1 °F 89% 30.06 in 10.0 mi NW 4.6 mph - N/A   Clear
3:53 AM 27.0 °F 20.5 °F 23.0 °F 85% 30.05 in 10.0 mi NW 5.8 mph - N/A   Clear
4:53 AM 26.1 °F 18.4 °F 23.0 °F 88% 30.04 in 10.0 mi NW 6.9 mph - N/A   Clear
5:53 AM 26.1 °F 18.4 °F 23.0 °F 88% 30.03 in 10.0 mi NW 6.9 mph - N/A   Clear
6:53 AM 26.1 °F 18.4 °F 23.0 °F 88% 30.02 in 10.0 mi NW 6.9 mph - N/A   Clear
7:53 AM 33.1 °F 27.7 °F 28.9 °F 85% 29.99 in 10.0 mi NW 5.8 mph - N/A   Clear
8:53 AM 46.0 °F 40.6 °F 30.9 °F 56% 29.97 in 10.0 mi West 11.5 mph - N/A   Clear
9:53 AM 54.0 °F - 30.9 °F 41% 29.96 in 10.0 mi West 11.5 mph - N/A   Clear
10:53 AM 60.1 °F - 30.9 °F 33% 29.95 in 10.0 mi West 8.1 mph - N/A   Clear
11:53 AM 66.9 °F - 32.0 °F 27% 29.92 in 10.0 mi West 11.5 mph - N/A   Clear
12:53 PM 69.1 °F - 32.0 °F 25% 29.89 in 10.0 mi NW 10.4 mph 20.7 mph N/A   Clear
1:53 PM 72.0 °F - 35.1 °F 26% 29.85 in 10.0 mi Variable 5.8 mph 16.1 mph N/A   Clear
2:53 PM 73.9 °F - 37.0 °F 26% 29.83 in 10.0 mi West 15.0 mph 18.4 mph N/A   Clear
3:53 PM 75.0 °F - 39.0 °F 27% 29.81 in 10.0 mi WNW 11.5 mph 23.0 mph N/A   Partly Cloudy
4:53 PM 72.0 °F - 39.9 °F 31% 29.81 in 10.0 mi NW 15.0 mph 21.9 mph N/A   Mostly Cloudy
5:53 PM 71.1 °F - 37.0 °F 29% 29.81 in 10.0 mi North - - 0.00 in Rain Light Rain
6:53 PM 71.1 °F - 42.1 °F 35% 29.81 in 10.0 mi West 5.8 mph - 0.00 in   Mostly Cloudy
7:53 PM 66.9 °F - 37.9 °F 34% 29.82 in 10.0 mi ENE 12.7 mph - N/A   Clear
8:53 PM 61.0 °F - 39.0 °F 44% 29.82 in 10.0 mi East 10.4 mph - N/A   Clear
9:53 PM 54.0 °F - 41.0 °F 62% 29.87 in 10.0 mi East 4.6 mph - N/A   Clear
10:53 PM 51.1 °F - 41.0 °F 68% 29.90 in 10.0 mi ENE 3.5 mph - N/A   Mostly Cloudy
11:53 PM 48.9 °F - 41.0 °F 74% 29.92 in 10.0 mi NE 5.8 mph - N/A   Overcast